[[{"header":{"parameterUnit":"m.s-1","parameterCategory":1,"la1":30.2991,"la2":30.254,"lo1":-89.0895,"lo2":-89.0444,"dy":0.0017,"dx":0.0017,"nx":28,"ny":28,"refTime":"2025-07-31T09:00:00:Z","depth":0,"parameterNumber":2,"parameterNumberName":"U-component_of_WINDS"},"data":[0,0,0,0,0,0,0,0,0,0,0,0,0,0,0,0,0,0,0,0,0,0,0,0,0,0,0,0,0,0,0,0,0,0,0,0,0,0,0,0,0,0,0,0,0,0,0,0,0,0,0,0,0,0,0,0,0,0,3.23,3.2301,0,3.239,3.2391,3.2392,3.2319,3.2316,3.2313,3.231,3.2406,3.2411,3.2416,0,0,0,0,0,0,0,0,0,0,0,0,0,3.2067,3.2072,3.23,3.2301,3.2302,3.2389,3.2391,3.2392,3.232,3.2316,3.2313,3.2309,3.2404,3.241,3.2417,0,0,0,0,0,0,0,0,0,0,0,0,0,3.2164,3.2073,3.23,3.2277,3.2275,3.2389,3.2391,3.2392,3.2321,3.2316,3.2312,3.2307,3.2402,3.241,3.2418,3.256,0,0,3.2442,3.2446,0,0,0,0,0,0,0,0,3.2158,3.2172,3.2279,3.2278,3.2277,3.2339,3.2343,3.2449,3.2322,3.2304,3.231,3.2305,3.2387,3.2396,3.2423,3.2564,3.2569,3.2443,3.2448,3.2452,3.2454,0,0,0,0,0,0,0,3.2152,3.2168,3.2335,3.2281,3.228,3.2262,3.2271,3.2363,3.237,3.2305,3.23,3.2311,3.2386,3.2416,3.2425,3.257,3.2443,3.245,3.2455,3.2458,3.2829,3.2834,0,0,0,0,0,0,3.2147,3.2163,3.2333,3.2338,3.2205,3.227,3.228,3.2324,3.2369,3.2372,3.2315,3.2308,3.2404,3.2416,3.2428,3.2596,3.2452,3.2459,3.2464,3.2824,3.283,3.2836,0,0,0,0,0,0,3.2142,3.2163,3.2329,3.2249,3.2269,3.2279,3.2329,3.2328,3.2357,3.2377,3.2378,3.2344,3.2401,3.2417,3.2527,3.2598,3.2463,3.247,3.2818,3.2826,3.2833,3.2933,0,0,0,0,0,0,3.2136,3.2162,3.2216,3.2251,3.2273,3.2426,3.2333,3.2333,3.2371,3.2362,3.2404,3.2407,3.2399,3.2515,3.2535,3.2607,3.2476,3.2812,3.2822,3.2831,3.2924,3.2943,3.296,0,0,0,0,0,3.2128,3.2242,3.2219,3.224,3.2341,3.243,3.2443,3.2431,3.2377,3.2432,3.2443,3.2406,3.2587,3.2527,3.2549,3.2624,3.2807,3.2819,3.283,3.2916,3.2939,3.296,0,0,0,0,0,0,3.2217,3.2246,3.2221,3.235,3.2388,3.2418,3.2486,3.2457,3.2512,3.2501,3.2484,3.2494,3.2609,3.2628,3.256,3.2763,3.2689,3.2705,3.2746,3.2769,3.2787,3.278,3.2483,0,0,0,0,0,3.2251,3.232,3.2342,3.2454,3.2474,3.2477,3.2515,3.2502,3.2541,3.2557,3.2578,3.2618,3.2683,3.2728,3.2789,3.2926,3.2933,3.2988,3.3006,3.3021,3.3035,3.3106,3.3131,3.2872,3.2872,3.2872,0,0,3.2323,3.2348,3.2393,3.2472,3.25,3.2572,3.2491,3.2572,3.2625,3.257,3.2674,3.269,3.2734,3.2857,3.2913,3.2876,3.3108,3.3035,3.3047,3.3053,3.3121,3.3145,3.3167,3.288,3.2879,3.2877,0,0,3.2491,3.2517,3.2611,3.264,3.2683,3.2684,3.2706,3.2741,3.2748,3.2852,3.2812,3.2875,3.299,3.3021,3.3053,3.3229,3.3196,3.325,3.3345,3.3415,3.3435,3.3453,3.3515,3.3537,3.3264,3.3265,3.3265,0,3.2575,3.2682,3.2664,3.2746,3.2782,3.2733,3.2828,3.2858,3.2919,3.2945,3.2903,3.3043,3.3069,3.3198,3.324,3.3268,3.3293,3.3245,3.3434,3.3452,3.3468,3.3527,3.355,3.3271,3.327,3.3269,3.3269,0,3.2783,3.2857,3.2928,3.2986,3.3029,3.3118,3.3113,3.316,3.3142,3.3147,3.3252,3.3281,3.3347,3.3377,3.3361,3.3503,3.3479,3.3436,3.3361,3.3499,3.3554,3.3576,3.328,3.3277,3.3275,3.3274,0,0,3.3011,3.3055,3.3082,3.3106,3.3148,3.3206,3.3291,3.3354,3.3393,3.3436,3.3507,3.3603,3.3563,3.3598,3.3586,3.3647,3.3783,3.3596,3.3596,3.3628,3.3939,3.397,3.3997,3.376,3.3765,3.3768,3.3934,0,3.3179,3.3327,3.3312,3.3452,3.352,3.3473,3.3548,3.3581,3.3588,3.3646,3.3654,3.3721,3.3664,3.3684,3.3743,3.3754,3.3844,3.3742,3.3826,3.3829,3.3816,3.4025,3.406,3.4215,3.3956,3.3959,3.3962,0,3.3396,3.3444,3.3591,3.362,3.3648,3.3715,3.3769,3.3826,3.3863,3.3863,3.3901,3.3877,3.3963,3.3886,3.4003,3.3933,3.3967,3.3977,3.3982,3.399,3.3904,3.4037,3.4265,3.4288,3.3996,3.3993,3.3991,0,3.3545,3.3647,3.3747,3.377,3.3807,3.3855,3.3873,3.3905,3.3943,3.3991,3.4015,3.4073,3.4105,3.415,3.4142,3.4087,3.4261,3.4184,3.4264,3.4264,3.4303,3.43,3.4538,3.4326,3.4325,3.4325,3.4324,0,3.3734,3.3826,3.3815,3.3877,3.3977,3.3959,3.4058,3.4071,3.4099,3.4162,3.4126,3.4186,3.4172,3.4232,3.4226,3.4323,3.4338,3.434,3.4338,3.4343,3.4343,3.4365,3.4354,3.4331,3.433,3.4328,3.4327,0,3.3919,3.3915,3.4021,3.4046,3.4055,3.4128,3.4149,3.4207,3.421,3.429,3.4307,3.4312,3.438,3.4376,3.4454,3.445,3.4569,3.4554,3.4556,3.4553,3.4632,3.4624,3.4891,3.4925,3.4692,3.4694,3.4696,0,3.4039,3.4108,3.414,3.4178,3.4199,3.4263,3.43,3.4284,3.4325,3.437,3.4422,3.4487,3.4537,3.4648,3.4658,3.4717,3.4703,3.4792,3.4711,3.4714,3.4702,3.4698,3.4704,3.4808,3.4811,3.4813,3.4815,0,3.4253,3.4247,3.4302,3.4356,3.4401,3.4443,3.4482,3.4516,3.4504,3.4551,3.4619,3.4658,3.4735,3.4799,3.4854,3.4873,3.4842,3.484,3.4861,3.4867,3.4865,3.4866,3.4598,3.4834,3.4832,3.4831,3.483,3.4829,3.4409,3.4467,3.4497,3.4559,3.4585,3.4621,3.4676,3.4684,3.474,3.4801,3.4788,3.4865,3.4898,3.4968,3.4992,3.5051,3.5019,3.5051,3.5058,3.5066,3.5074,3.4856,3.5061,3.5061,3.506,3.506,3.506,0,3.462,3.4636,3.4693,3.4746,3.4795,3.4759,3.4799,3.4842,3.4909,3.4942,3.4991,3.5068,3.5129,3.5144,3.5202,3.5247,3.5234,3.5263,3.5259,3.5264,3.51,3.5075,3.5272,3.5272,3.5272,3.5272,3.5272,3.5272,3.4735,3.483,3.4828,3.4935,3.4952,3.5025,3.505,3.5083,3.5108,3.5196,3.5245,3.5254,3.5279,3.5338,3.5393,3.5395,3.5418,3.5452,3.5449,3.5297,3.5275,3.5255,3.5232,3.5458,3.5458,3.5608,3.5609,3.561]},{"header":{"parameterUnit":"m.s-1","parameterCategory":1,"la1":30.2991,"la2":30.254,"lo1":-89.0895,"lo2":-89.0444,"dy":0.0017,"dx":0.0017,"nx":28,"ny":28,"refTime":"2025-07-31T09:00:00:Z","depth":0,"parameterNumber":3,"parameterNumberName":"V-component_of_WINDS"},"data":[0,0,0,0,0,0,0,0,0,0,0,0,0,0,0,0,0,0,0,0,0,0,0,0,0,0,0,0,0,0,0,0,0,0,0,0,0,0,0,0,0,0,0,0,0,0,0,0,0,0,0,0,0,0,0,0,0,0,2.5494,2.5495,0,2.5596,2.5597,2.5598,2.5597,2.5596,2.5594,2.5593,2.5693,2.5697,2.5701,0,0,0,0,0,0,0,0,0,0,0,0,0,2.5294,2.5297,2.5494,2.5495,2.5497,2.5596,2.5597,2.5598,2.5597,2.5596,2.5594,2.5592,2.5692,2.5697,2.5701,0,0,0,0,0,0,0,0,0,0,0,0,0,2.5386,2.5299,2.5494,2.5508,2.551,2.5595,2.5597,2.5599,2.5598,2.5596,2.5594,2.5592,2.569,2.5696,2.5702,2.5779,0,0,2.572,2.5723,0,0,0,0,0,0,0,0,2.5381,2.5394,2.5505,2.5507,2.551,2.5582,2.5563,2.5659,2.5598,2.5564,2.5593,2.5591,2.5658,2.5666,2.5689,2.5783,2.5788,2.572,2.5724,2.5727,2.5728,0,0,0,0,0,0,0,2.5375,2.5389,2.5534,2.5506,2.5509,2.5508,2.5519,2.5581,2.5621,2.5567,2.5567,2.558,2.5659,2.5684,2.5692,2.5789,2.572,2.5726,2.5729,2.5731,2.5948,2.5951,0,0,0,0,0,0,2.5366,2.5384,2.5531,2.5537,2.5439,2.5513,2.5525,2.5561,2.562,2.5627,2.5581,2.5579,2.5675,2.5685,2.5695,2.5787,2.5727,2.5732,2.5735,2.5946,2.5949,2.5951,0,0,0,0,0,0,2.5362,2.5379,2.5527,2.5461,2.5479,2.5519,2.5558,2.5564,2.5589,2.5631,2.5637,2.56,2.5674,2.5687,2.5758,2.5791,2.5735,2.574,2.5944,2.5947,2.595,2.5973,0,0,0,0,0,0,2.5356,2.5378,2.5408,2.5462,2.5483,2.5589,2.556,2.5567,2.56,2.5598,2.565,2.5657,2.5673,2.5749,2.5763,2.5798,2.5745,2.5941,2.5945,2.5949,2.5969,2.5977,2.5983,0,0,0,0,0,2.5349,2.541,2.541,2.5428,2.5522,2.5591,2.5603,2.5621,2.5602,2.5632,2.5659,2.5655,2.5785,2.5756,2.5773,2.5809,2.5939,2.5944,2.5949,2.5966,2.5975,2.5983,0,0,0,0,0,0,2.5359,2.5417,2.5418,2.5498,2.554,2.5591,2.5629,2.5631,2.5677,2.5673,2.5693,2.5705,2.5775,2.5799,2.5766,2.5885,2.5859,2.5868,2.5867,2.5876,2.5882,2.5874,2.575,0,0,0,0,0,2.537,2.5423,2.5471,2.5537,2.5558,2.559,2.5621,2.5631,2.5674,2.5692,2.5724,2.5764,2.5814,2.5846,2.5895,2.5973,2.5983,2.6006,2.6013,2.6018,2.6025,2.6066,2.6077,2.5968,2.5968,2.5968,0,0,2.5395,2.5433,2.5465,2.554,2.5573,2.5625,2.5605,2.5661,2.5699,2.57,2.5768,2.5793,2.584,2.5914,2.5949,2.5936,2.6057,2.6025,2.6029,2.6033,2.6073,2.6083,2.6092,2.5971,2.5971,2.597,0,0,2.5465,2.5501,2.5559,2.5593,2.5644,2.5665,2.5679,2.573,2.5747,2.5816,2.5817,2.5862,2.5948,2.5981,2.6009,2.6091,2.6088,2.6106,2.6141,2.6181,2.6189,2.6197,2.6225,2.6235,2.6113,2.6113,2.6113,0,2.5488,2.5568,2.5588,2.5645,2.5677,2.5681,2.5739,2.5771,2.5835,2.5856,2.5842,2.5949,2.5981,2.6062,2.6082,2.6105,2.612,2.61,2.6187,2.6195,2.6202,2.6229,2.6239,2.6115,2.6114,2.6114,2.6114,0,2.5593,2.5649,2.569,2.5752,2.5789,2.5846,2.5873,2.5908,2.5915,2.5937,2.6006,2.6045,2.61,2.612,2.6128,2.6202,2.6193,2.6183,2.6157,2.6214,2.6239,2.6249,2.6117,2.6116,2.6116,2.6115,0,0,2.5672,2.5745,2.576,2.5788,2.5844,2.5886,2.5943,2.5998,2.6027,2.607,2.6117,2.6189,2.618,2.6211,2.6222,2.6258,2.6318,2.6243,2.6244,2.6254,2.64,2.6407,2.6418,2.6317,2.6319,2.6321,2.6396,0,2.5748,2.5849,2.5869,2.5957,2.6007,2.6011,2.606,2.6099,2.6121,2.6165,2.6188,2.6239,2.6224,2.6242,2.6278,2.6303,2.6347,2.6298,2.6359,2.636,2.6346,2.6432,2.6439,2.6508,2.6406,2.6408,2.6409,0,2.5849,2.5896,2.5989,2.6038,2.606,2.6103,2.6155,2.6198,2.6242,2.6255,2.629,2.6297,2.6353,2.6326,2.6403,2.6369,2.6395,2.6411,2.6414,2.6419,2.6387,2.6438,2.6531,2.654,2.6425,2.6424,2.6423,0,2.5895,2.5982,2.6048,2.6072,2.6131,2.6161,2.6187,2.6229,2.6261,2.6305,2.6326,2.6376,2.6403,2.6441,2.646,2.6439,2.6536,2.651,2.6546,2.6546,2.6566,2.6564,2.6662,2.6585,2.6585,2.6584,2.6584,0,2.5976,2.6032,2.607,2.611,2.6173,2.6194,2.6255,2.628,2.6317,2.6361,2.6368,2.6409,2.6433,2.6477,2.6492,2.6553,2.6565,2.6576,2.6579,2.6575,2.6573,2.6591,2.6586,2.6587,2.6587,2.6586,2.6586,0,2.6038,2.6065,2.6138,2.6188,2.6202,2.6245,2.6287,2.6326,2.6348,2.6404,2.6418,2.6452,2.6504,2.6527,2.6591,2.6602,2.667,2.6671,2.6656,2.6657,2.6691,2.6687,2.6804,2.6819,2.6732,2.6733,2.6734,0,2.6087,2.613,2.6185,2.6216,2.6243,2.6293,2.6325,2.6347,2.6381,2.6433,2.6465,2.6518,2.6561,2.6643,2.6672,2.6721,2.6722,2.6759,2.6729,2.6723,2.672,2.6717,2.6721,2.6764,2.6765,2.6766,2.6766,0,2.6171,2.6182,2.623,2.6282,2.6321,2.6362,2.6403,2.6427,2.6456,2.6492,2.6547,2.658,2.6646,2.6697,2.6748,2.6772,2.6773,2.6776,2.6786,2.6782,2.6771,2.6775,2.6669,2.6773,2.6772,2.6772,2.6771,2.6771,2.6226,2.6265,2.6309,2.6362,2.6395,2.6433,2.6471,2.6498,2.6544,2.66,2.661,2.6667,2.6708,2.6776,2.6803,2.6846,2.6837,2.6853,2.6857,2.686,2.6861,2.6765,2.6856,2.6856,2.6855,2.6855,2.6855,0,2.6309,2.6338,2.6386,2.6443,2.6484,2.6484,2.6529,2.6562,2.6613,2.6652,2.6694,2.6755,2.6805,2.6838,2.6888,2.6916,2.6918,2.6929,2.6926,2.6931,2.6868,2.6853,2.6926,2.6926,2.6926,2.6926,2.6926,2.6926,2.6357,2.6421,2.6438,2.6518,2.6546,2.6603,2.6629,2.6663,2.6694,2.6763,2.6805,2.6827,2.6863,2.6915,2.696,2.6968,2.6986,2.6996,2.7004,2.6943,2.6936,2.6929,2.6915,2.7,2.7,2.7064,2.7064,2.7065]}]]